星链-30475 (STARLINK-30475 )

导读 | 星芒AI

STARLINK-30475 是 SpaceX Starlink 项目中的一颗低轨道通信卫星,属于第三代 Starlink 卫星(v1.5)。该卫星于2023年发射,旨在为全球提供高速互联网服务。它运行在约540公里高的轨道上,配备先进激光通信系统和多频段通信设备,以提升网络连接速度与稳定性。STARLINK-30475 与其他 Starlink 卫星协同工作,支持偏远地区的宽带接入,并增强整个星座的冗余与覆盖能力。

基本信息
目录编号:
57929
目录名称:
STARLINK-30475
国际标识:
2023-147S
轨道中心:
EARTH
卫星名称:
星链-30475
卫星全名:
星链-30475 (STARLINK-30475 )
卫星状态:
已陨落 最后检测时间 2025-03-26
发射日期:
2023-09-24 UTC
国别 :
美国 (US)
星等 :
--
轨道信息
数据来源 国际轨道数据
星历时间: 2025-03-26T01:17:27+0800
轨道信息已过期219天
半长轴: 6576.741km
偏心率: 0.001521
轨道倾角: 42.977°
近地点辐角 241.178°
升交点赤经 334.999°
平近点角 177.651°
近地点: 188.602km
远地点: 208.61km
周期: 88.466分钟
每日圈数: 16.277463
详细信息
固有亮度:
5
最大亮度:
0.3
卫星平台:
Starlink v2.0 mini
覆盖范围:
全球
运营商:
太空探索技术公司
运营商所在国:
美国
制造商(研发单位):
太空探索技术公司
制造商所在国:
美国
使用方式:
暂无
卫星简介
星链(Starlink)计划是由太空探索技术公司(SpaceX)提出的一个巨型低轨卫星互联网星座项目,计划在2019年至2024年间在太空搭建由约1.2万颗卫星组成的“星链”网络,其中1584颗将部署在地球上空550千米处的近地轨道,并从2020年开始工作。该卫星仍在工作。